| time (UTC) | temp C | wind direction | speed KPH | gust KPH | rain 1hr cm | rain 24hr cm | rain mn cm | humidity % | barometer mb |
| 20260502151559 | 12 | 233 | 8.0 | 17.7 | 0.00 | 0.00 | 0.00 | 47 | 1017.7 |
| 20260502130121 | 2 | 0 | 0.0 | 1.6 | 0.00 | 0.00 | 0.00 | 74 | 1018.7 |
| 20260502123126 | 0 | 0 | 0.0 | 1.6 | 0.00 | 0.00 | 0.00 | 80 | 1018.8 |
| 20260502121604 | 0 | 0 | 0.0 | 1.6 | 0.00 | 0.00 | 0.00 | 82 | 1018.8 |
| 20260502120127 | -1 | 0 | 0.0 | 0.0 | 0.00 | 0.00 | 0.00 | 82 | 1018.9 |
| 20260502114600 | -1 | 30 | 0.0 | 0.0 | 0.00 | 0.00 | 0.00 | 82 | 1018.8 |
| 20260502113100 | -1 | 0 | 0.0 | 0.0 | 0.00 | 0.00 | 0.00 | 83 | 1018.9 |
| 20260502111558 | -1 | 0 | 0.0 | 0.0 | 0.00 | 0.00 | 0.00 | 84 | 1018.8 |
| 20260502110057 | -1 | 0 | 0.0 | 0.0 | 0.00 | 0.00 | 0.00 | 86 | 1018.9 |
| 20260502104557 | -2 | 0 | 0.0 | 0.0 | 0.00 | 0.00 | 0.00 | 87 | 1019.1 |
| 20260502103058 | -2 | 0 | 0.0 | 0.0 | 0.00 | 0.00 | 0.00 | 88 | 1019.1 |
| 20260502101605 | -3 | 0 | 0.0 | 0.0 | 0.00 | 0.00 | 0.00 | 88 | 1019.2 |
| 20260502064558 | -1 | 0 | 0.0 | 1.6 | 0.00 | 0.00 | 0.00 | 87 | 1019.4 |
| 20260502063101 | -1 | 0 | 0.0 | 0.0 | 0.00 | 0.00 | 0.00 | 88 | 1019.5 |
| 20260502061559 | -1 | 0 | 0.0 | 0.0 | 0.00 | 0.00 | 0.00 | 87 | 1019.5 |
| 20260502060119 | -1 | 0 | 0.0 | 0.0 | 0.00 | 0.00 | 0.00 | 84 | 1019.8 |
| 20260502054600 | -1 | 0 | 0.0 | 0.0 | 0.00 | 0.00 | 0.00 | 83 | 1019.8 |
| 20260502053059 | -1 | 0 | 0.0 | 0.0 | 0.00 | 0.00 | 0.00 | 84 | 1019.9 |
| 20260502051602 | -1 | 0 | 0.0 | 0.0 | 0.00 | 0.00 | 0.00 | 85 | 1019.9 |
| 20260502050057 | -1 | 0 | 0.0 | 0.0 | 0.00 | 0.00 | 0.00 | 85 | 1019.8 |
| 20260502044600 | -1 | 0 | 0.0 | 0.0 | 0.00 | 0.00 | 0.00 | 86 | 1019.8 |
| 20260502043119 | -1 | 0 | 0.0 | 0.0 | 0.00 | 0.00 | 0.00 | 85 | 1019.8 |
| 20260502041559 | -1 | 0 | 0.0 | 0.0 | 0.00 | 0.00 | 0.00 | 83 | 1019.9 |
| 20260502040107 | 0 | 0 | 0.0 | 0.0 | 0.00 | 0.00 | 0.00 | 80 | 1019.9 |
| 20260502034605 | 0 | 0 | 0.0 | 0.0 | 0.00 | 0.00 | 0.00 | 78 | 1019.9 |
| 20260502033106 | 0 | 0 | 0.0 | 0.0 | 0.00 | 0.00 | 0.00 | 78 | 1019.7 |
| 20260502031609 | 1 | 0 | 0.0 | 0.0 | 0.00 | 0.00 | 0.00 | 71 | 1019.7 |
| 20260502030108 | 2 | 0 | 0.0 | 0.0 | 0.00 | 0.00 | 0.00 | 67 | 1019.6 |
| 20260502024611 | 2 | 0 | 0.0 | 0.0 | 0.00 | 0.00 | 0.00 | 66 | 1019.5 |
| 20260502023059 | 3 | 0 | 0.0 | 0.0 | 0.00 | 0.00 | 0.00 | 64 | 1019.3 |
| 20260502021606 | 3 | 0 | 0.0 | 0.0 | 0.00 | 0.00 | 0.00 | 62 | 1019.2 |
| 20260502020105 | 5 | 0 | 0.0 | 0.0 | 0.00 | 0.00 | 0.00 | 58 | 1019.0 |
| 20260502014558 | 6 | 0 | 0.0 | 0.0 | 0.00 | 0.00 | 0.00 | 54 | 1018.9 |
| 20260502013103 | 7 | 0 | 0.0 | 1.6 | 0.00 | 0.00 | 0.00 | 52 | 1018.9 |
| 20260502011601 | 7 | 55 | 0.0 | 3.2 | 0.00 | 0.00 | 0.00 | 50 | 1018.9 |
| 20260502010106 | 8 | 34 | 0.0 | 6.4 | 0.00 | 0.00 | 0.00 | 47 | 1018.8 |
| 20260502004608 | 9 | 0 | 1.6 | 11.3 | 0.00 | 0.03 | 0.00 | 42 | 1018.7 |
| 20260502003106 | 10 | 352 | 0.0 | 8.0 | 0.00 | 0.03 | 0.00 | 44 | 1018.6 |
| 20260502001557 | 10 | 63 | 4.8 | 12.9 | 0.00 | 0.03 | 0.00 | 41 | 1018.5 |
| 20260502000111 | 10 | 41 | 3.2 | 11.3 | 0.00 | 0.03 | 0.00 | 42 | 1018.5 |
| 20260501234558 | 10 | 4 | 6.4 | 12.9 | 0.00 | 0.03 | 0.00 | 42 | 1018.6 |
| 20260501233058 | 10 | 350 | 4.8 | 14.5 | 0.00 | 0.03 | 0.00 | 40 | 1018.5 |
| 20260501231558 | 10 | 343 | 4.8 | 14.5 | 0.00 | 0.03 | 0.00 | 41 | 1018.6 |
| 20260501230059 | 10 | 307 | 3.2 | 29.0 | 0.00 | 0.03 | 0.00 | 40 | 1018.6 |
| 20260501224557 | 10 | 359 | 6.4 | 14.5 | 0.00 | 0.03 | 0.00 | 41 | 1018.6 |
| 20260501223106 | 10 | 35 | 4.8 | 17.7 | 0.00 | 0.03 | 0.00 | 42 | 1018.5 |
| 20260501221601 | 10 | 34 | 8.0 | 19.3 | 0.00 | 0.03 | 0.00 | 42 | 1018.5 |
| 20260501220103 | 10 | 352 | 3.2 | 20.9 | 0.00 | 0.03 | 0.00 | 46 | 1018.5 |
| 20260501214559 | 10 | 47 | 1.6 | 11.3 | 0.00 | 0.03 | 0.00 | 44 | 1018.6 |
| 20260501213058 | 9 | 296 | 6.4 | 14.5 | 0.00 | 0.03 | 0.00 | 46 | 1018.5 |
| 20260501211614 | 10 | 35 | 6.4 | 20.9 | 0.00 | 0.03 | 0.00 | 43 | 1018.6 |
| 20260501210059 | 10 | 25 | 6.4 | 17.7 | 0.00 | 0.03 | 0.00 | 44 | 1018.8 |
| 20260501204600 | 10 | 33 | 3.2 | 11.3 | 0.00 | 0.03 | 0.00 | 45 | 1018.7 |
| 20260501203059 | 10 | 347 | 9.7 | 19.3 | 0.00 | 0.03 | 0.00 | 45 | 1019.1 |
| 20260501201600 | 9 | 333 | 4.8 | 14.5 | 0.00 | 0.03 | 0.00 | 47 | 1019.1 |
| 20260501200059 | 9 | 349 | 6.4 | 16.1 | 0.00 | 0.03 | 0.00 | 45 | 1019.1 |
| 20260501194601 | 9 | 12 | 8.0 | 16.1 | 0.00 | 0.03 | 0.00 | 45 | 1019.3 |
| 20260501193119 | 10 | 0 | 4.8 | 16.1 | 0.00 | 0.03 | 0.00 | 50 | 1019.1 |
| 20260501191601 | 8 | 40 | 3.2 | 14.5 | 0.00 | 0.03 | 0.00 | 52 | 1019.3 |
| 20260501190129 | 8 | 351 | 6.4 | 14.5 | 0.00 | 0.03 | 0.00 | 47 | 1019.3 |
| 20260501184612 | 9 | 79 | 8.0 | 17.7 | 0.00 | 0.03 | 0.00 | 47 | 1019.2 |
| 20260501183100 | 8 | 55 | 6.4 | 22.5 | 0.00 | 0.03 | 0.00 | 53 | 1019.2 |
| 20260501181557 | 8 | 19 | 9.7 | 17.7 | 0.00 | 0.03 | 0.00 | 52 | 1019.3 |
| 20260501180115 | 8 | 349 | 4.8 | 19.3 | 0.00 | 0.03 | 0.00 | 51 | 1019.2 |
| 20260501174559 | 7 | 340 | 9.7 | 17.7 | 0.00 | 0.03 | 0.00 | 51 | 1019.2 |
| 20260501173100 | 7 | 11 | 9.7 | 19.3 | 0.00 | 0.03 | 0.00 | 52 | 1019.4 |
| 20260501171559 | 6 | 11 | 6.4 | 16.1 | 0.00 | 0.03 | 0.00 | 55 | 1019.4 |
| 20260501170109 | 7 | 285 | 4.8 | 22.5 | 0.00 | 0.03 | 0.00 | 55 | 1019.5 |
| 20260501164556 | 7 | 32 | 8.0 | 16.1 | 0.00 | 0.03 | 0.00 | 57 | 1019.4 |
| 20260501163100 | 7 | 56 | 6.4 | 17.7 | 0.00 | 0.03 | 0.00 | 57 | 1019.5 |
| 20260501161601 | 6 | 34 | 6.4 | 19.3 | 0.00 | 0.03 | 0.00 | 56 | 1019.5 |
| 20260501160108 | 6 | 6 | 8.0 | 19.3 | 0.00 | 0.03 | 0.00 | 56 | 1019.3 |
| 20260501154609 | 6 | 43 | 8.0 | 19.3 | 0.00 | 0.03 | 0.00 | 59 | 1019.2 |
| 20260501153059 | 5 | 353 | 3.2 | 17.7 | 0.00 | 0.03 | 0.00 | 58 | 1019.3 |